Foehn-Box 5     Le Cottier - Séez                      
EPHEMERIDE     (heures GMT)
Lever Zenith Coucher
4:30:40 11:37:52 18:44:16

Validation GPS le : 22-8-12 5:30  (GMT)

BATTERIE : 4.63      SOLAIRE : 6.15

SIGNAL : 24.99 ALTITUDE : 1371

FOEHN-BOX 5           Date :  12/08/2022   
Heure Vent
instant
Vent
moyen
Vent
mini
Vent
maxi
Direction
vent
Tempe
-rature
Pression
Humidite
14:55:13 0 0 0 0 24.8 864.1 46.1
14:50:13 0 0 0 0 25.5 864.2 46.8
14:45:13 0 0 0 0 25.6 864.2 47.5
14:40:13 0 0 0 0 24.6 864.3 47.7
14:35:13 0 0 0 0 24.2 864.4 48.1
14:30:13 0 0 0 0 24.9 864.4 47.8
14:25:13 0 0 0 0 25.3 864.4 47.7
14:20:13 0 0 0 0 26.4 864.4 47.7
14:15:13 0 0 0 0 26.4 864.4 47.3
14:10:13 0 0 0 0 26.6 864.4 47.5
14:05:14 0 0 0 0 25.8 864.5 47.4
14:00:13 0 0 0 0 25.8 864.5 47.2
13:55:13 0 0 0 0 26.2 864.4 47.2
13:50:13 0 0 0 0 26.6 864.3 47.4
13:45:13 0 0 0 0 25.8 864.5 47.6
13:40:13 0 0 0 0 25.4 864.6 47.8
13:35:13 0 0 0 0 26.0 864.7 47.3
13:30:13 0 0 0 0 24.9 864.7 47.6
13:25:13 0 0 0 0 25.1 864.6 47.2
13:20:13 0 0 0 0 24.7 864.7 48.2
13:15:13 0 0 0 0 25.3 864.8 48.2
13:10:13 0 0 0 0 24.6 864.7 48.4
13:05:13 0 0 0 0 24.6 864.8 48.4